Showing default

KUWAITSAT-1, 55103

Orbit data source: Space-Track

KUWAITSAT-1, 55103 is a payload satellite owned by Kuwait U. (KW) in SSO that was launched on Tue, 03 Jan 2023 UTC via an FALCON 9 launch vehicle from the Air Force Eastern Test Range (AFETR). Payload-class satellites include a variety of spacecraft equipped with specific instruments for various scientific and technological missions. These include communications satellites like Starlink; space stations such as the ISS; scientific satellites like the Hubble; Earth observation satellites from companies like Planet Labs, Umbra, and HawkEye 360; GPS; miniature CubeSats for education and research; and military/defense satellites.

Loading next visibility...
Identifier
55103, 2023-001CY
Orbit
SSO
Country
Flag of KWKW / KWT
Related business
Manufacturer
Kuwait U.
Mission
Operational Amateur Technology
Bus & Motor
CUBESAT 2U, Unknown motor
Mass
3 kg wet, 3 kg dry
Launch date (UTC)
2023-01-03 (4 years ago)
Launch vehicle
FALCON 9
Launch site
Air Force Eastern Test Range (AFETR)
Object type
Payload
Rocket body
Debris
Shape & HBR
Box, 0.1 m
Radar Cross Section
0.025 m², Medium (>0.1 m² and < 1m²)

Expand to show TLE details & history
Last TLE update: 1 day ago

TLE from 1 day ago
0 KUWAITSAT-1
1 55103U 23001CY  26234.78399753  .00022546  00000-0  37038-3 0  9991
2 55103  97.3197 306.7500 0008619 175.4697 184.6635 15.52371192202919
Epoch: 2026-08-22T18:48Z
TLE epoch observation values (Epoch: 2026-08-22T18:48:57.386Z)
Latitude
-0.00008°
Longitude
53.42146°
Altitude
418.774 km
Speed
7.657 km/s
True Right ascension
20h 27m 00s
True Declination
0° 00' 00"
Sunlit
Object was in full shadow at epoch
Visualization orbit readout
Latitude
Unknown
Longitude
Unknown
Altitude
Unknown
Speed
Unknown
Apparent Right ascension
Unknown
Apparent Declination
Unknown
Sunlit
N/A
Visualization observer readout
Local Sidereal Time
17:50:22
Azimuth
Unknown
Elevation
Unknown
Doppler factor
Unknown
Orbital elements
Apogee altitude
412.572 km
Perigee altitude
400.876 km
Semi-major axis
6,784.861 km
Eccentricity
0.00086
Inclination
97.3197°
RAAN
306.75°
Arg. of periapsis
175.4697°
True anomaly
184.65548°
Mean anomaly
184.6635°
Eccentric anomaly
184.65949°
Mean motion
3.88358 °/min
Orbital period
92.7 mins
BSTAR
0.00037038
Loading maneuver chart data...
Computing Atmospheric mass density...

Documentation

Showing up to 5 results
|